Regional Weather Roundup
Issued by NWS New Orleans/Baton Rouge, LA

Home | Current Version | Previous Version | Graphics & Text | Print | Product List | Glossary On
Versions: 1 2 3 4 5 6 7 8 9 10 11 12 13 14 15 16 17 18 19 20 21 22 23 24 25 26 27 28 29 30 31 32 33 34 35 36 37 38 39 40 41 42 43 44 45 46 47 48 49 50
511
ASUS44 KLIX 021005
RWRLIX
NEW ORLEANS REGIONAL WEATHER ROUNDUP
NATIONAL WEATHER SERVICE NEW ORLEANS LA
400 AM CST MON MAR 02 2015

NOTE: "FAIR" INDICATES FEW OR NO CLOUDS BELOW 12,000 FEET WITH NO
      SIGNIFICANT WEATHER AND/OR OBSTRUCTIONS TO VISIBILITY.
      SKY/WX - SKY CONDITION AND SIGNIFICANT WEATHER.
      TMP - AIR TEMPERATURE.     DP    - DEWPOINT TEMPERATURE.
      RH  - RELATIVE HUMIDITY.   PRES  - PRESSURE.
      HI  - HEAT INDEX.          WCI   - WIND CHILL INDEX.

*  THESE STATIONS ARE NOT NWS OR FAA STATIONS AND ARE NOT UNDER
   NWS QUALITY CONTROL.

LAZ038-040-048-061>063-065>067-069-021100-
SOUTHEAST LOUISIANA

CITY           SKY/WX    TMP DP  RH WIND       PRES   REMARKS
N.O. AUDUBON     N/A     58  58 100 MISG        N/A
N.O. INTL ARPT CLOUDY    60  57  89 E3        30.25F
N.O. LAKEFRONT CLOUDY    59  56  89 E3        30.26S
SLIDELL        HVY RAIN  60  60 100 SE5       30.25S FOG
BATON ROUGE    CLOUDY    61  60  97 E7        30.24S
BOOTHVILLE     FOG       62  62 100 E7        30.24F VSB 1/4
BELLE CHASSE   LGT RAIN  61  58  90 SE3       30.24F
BOGALUSA*        N/A     61  58  90 S3        30.26F FOG
GALLIANO*      CLOUDY    53  53  99 E3        30.24F
NEW ROADS*     CLOUDY    61  60  98 E5        30.23F
GONZALES*      CLOUDY    60  60 100 CALM      30.24S
HAMMOND*       CLOUDY    61  59  94 CALM      30.26S
HOUMA*         CLOUDY    60  59  97 E5        30.24S
PORT FOURCHON* FOG       63  63 100 N9        30.27R VSB 1/4

$$

MSZ070-080>082-021100-
SOUTHERN MISSISSIPPI

CITY           SKY/WX    TMP DP  RH WIND       PRES   REMARKS
MCCOMB         CLOUDY    60  59  96 CALM      30.24F FOG
GULFPORT       LGT RAIN  57  56  96 E9        30.25F
BILOXI         CLOUDY    57  57 100 E9        30.24F
PASCAGOULA     CLOUDY    57  56  96 SE6       30.25F

$$

COASTAL OBSERVATIONS
LAKE AND NEARSHORE STATIONS

STATION/POSITION TIME  TEMP    WIND        PRES    WAVE
                       AIR SEA DIR/SP/G            HT/PER
                 (UTC) (F)     (DEG/KT/KT) (MB)    (FT/S)
PASCAGOULA       1000   56     110/  7/ 13 1023.8
WAVELAND YACHT   1000   56 54   50/  4/  6 1024.3
GRAND ISLE       1000   61 60  100/  4/  8 1024.1
SOUTHWEST PASS   1000   60 47  120/ 12/ 13 1023.9
NEW CANAL        1000   56      60/  6/  6 1024.7
SHELL BEACH      1000   59 55  120/ 12/ 14 1023.9

OFFSHORE STATIONS

STATION/POSITION TIME  TEMP    WIND        PRES    WAVE
                       AIR SEA DIR/SP/G            HT/PER
                 (UTC) (F)     (DEG/KT/KT) (MB)    (FT/S)
64 S DAUPHIN ISL 0940   68 71  100/ 17/ 19 1024.8    3/ 6

$$




USA.gov is the U.S. government's official web portal to all federal, state and local government web resources and services.